Погода в Дечене

Китай     27°49′13″N   99°42′15″E
темп.,
°C
ветер,
м/с
пор.,
м/с
влажн.,
%
обл.,
%
осадки,
мм/ч
давл.,
гПа
погр.,
м
23 сентября, чт
чт2323:00+7ююз229498 0.1 101766
02:00+7юз229899 0.3 101749
05:00+6юз119799 0.3 101633
08:00+6юз129656 0.5 101861
11:00+12зюз226923 0.3 10161031
14:00+15юз335376 0.8 10111729
17:00+13юз237328 1.3 1011908
20:00+8ююз229013 0.8 101524
24 сентября, пт
пт2423:00+6ююв229439 0.0 101921
02:00+7ю119452 0.3 101822
05:00+5ююз119814 0.3 101912
08:00+7юз119972 0.3 101991
11:00+11зюз237465 0.2 1017973
14:00+15зюз335332 0.5 10121533
17:00+14зюз446182 0.4 10101360
20:00+7ю22929 0.7 101614
25 сентября, сб
сб2523:00+6ю229529 0.1 101914
02:00+5ю119817 0.2 101913
05:00+5ю119958 0.0 101815
08:00+6ююз119562 0.1 1019191
11:00+11зюз127890 0.1 1018754
14:00+13юз236568 0.4 10141111
17:00+13юз336285 0.4 10111171
20:00+8ююз229052 0.6 101532
26 сентября, вс
вс2623:00+6ююв229532 0.3 101915
02:00+5ююв119537 0.4 101912
05:00+5юв119663 0.1 101810
08:00+7ю119497 0.3 101863
11:00+10юз128680 1.3 1017623
14:00+12юз227865 3.6 1013978
17:00+12юз227845 2.2 1012783
20:00+7ю2295100 3.6 101615
27 сентября, пн
пн2723:00+7ююв229598 0.1 101834
02:00+7ююв2399100 4.1 1018154
05:00+7ююв1297100 3.6 1017127
08:00+7ю2398100 3.9 1018173
11:00+8юз229498 0.4 1019419
14:00+10зюз228555 1.0 1015673
17:00+12зюз2368100 0.4 10111179
20:00+8зюз118879 0.6 101420